Location: Armstrong Village
(14.3346°N, 120.9854°E)
Time: 11:43:55
(UTC+00:00)

Cosmos 1862 Rocket - Pass Details

Date: 13 January 2026
Orbit: 596 x 627 km, 82.5° (Epoch: 16 February)

Event Time Altitude Azimuth Distance (km) Brightness Sun altitude
Rises 10:41:04 0° 166° (SSE) 2,897 7.1 -13.5°
Reaches altitude 10° 10:43:27 10° 157° (SSE) 1,994 6.1 -14.0°
Maximum altitude 10:47:27 34° 92° (E) 1,027 4.2 -14.9°
Enters shadow 10:49:28 23° 45° (NE) 1,341 4.8 -15.4°
